CW9561 Weather Reports


time (UTC)temp
F
wind
direction
speed
knots
gust
knots
rain 1hr
in
rain 24hr
in
rain mn
in
humidity
%
barometer
mb
20260831011034 55 283 0.0 0.0 0.00 0.00 0.46 82 1027.3
20260831005032 55 306 0.0 0.0 0.00 0.00 0.46 80 1027.2
20260831004037 56 169 0.0 0.0 0.00 0.00 0.46 79 1027.2
20260831003025 56 169 0.0 0.0 0.00 0.00 0.46 79 1027.2
20260831002026 57 265 0.0 0.0 0.00 0.00 0.46 78 1027.2
20260831001034 57 259 0.0 0.0 0.00 0.00 0.46 77 1027.1
20260831000032 58 250 0.0 0.0 0.00 0.00 0.46 77 1027.2
20260830235032 59 310 0.0 0.0 0.00 0.00 0.46 75 1027.2
20260830234033 59 244 0.0 0.0 0.00 0.00 0.46 74 1027.2
20260830232032 58 9 0.0 0.0 0.00 0.00 0.46 77 1027.2
20260830231028 58 9 0.0 0.0 0.00 0.00 0.46 76 1027.2
20260830230035 57 5 0.0 0.0 0.00 0.00 0.46 78 1027.0
20260830225036 56 344 1.7 0.0 0.00 0.00 0.46 80 1027.0
20260830224032 57 87 1.7 0.0 0.00 0.00 0.46 79 1026.9
20260830223026 58 360 3.5 0.0 0.00 0.00 0.46 81 1027.6
20260830222021 59 249 0.9 0.0 0.00 0.00 0.46 83 1027.5
20260830220039 55 121 0.9 0.0 0.00 0.00 0.46 88 1028.0
20260830215016 55 53 0.9 0.0 0.00 0.00 0.46 86 1028.0
20260830214037 56 38 1.7 0.0 0.00 0.00 0.46 85 1028.2
20260830213035 56 248 0.0 0.0 0.00 0.00 0.45 88 1028.5
20260830212019 55 215 0.0 0.0 0.00 0.00 0.45 87 1028.5
20260830211021 54 169 0.0 0.0 0.00 0.00 0.45 89 1028.5
20260830210037 53 265 0.0 0.0 0.00 0.00 0.45 91 1028.2
20260830205033 52 265 0.0 0.0 0.00 0.00 0.45 91 1028.5
20260830204028 52 269 0.0 0.0 0.00 0.00 0.45 92 1028.5
20260830203027 52 263 0.0 0.0 0.00 0.00 0.45 93 1029.1
20260830202025 51 263 0.0 0.0 0.00 0.00 0.45 93 1029.1
20260830201040 50 263 0.0 0.0 0.00 0.00 0.44 93 1029.2
20260830195033 49 254 0.0 0.0 0.00 0.00 0.40 91 1029.8
20260830194034 50 242 0.9 0.0 0.00 0.00 0.37 90 1029.2
20260830193029 50 302 0.9 0.0 0.00 0.00 0.35 90 1028.7
20260830192027 50 196 0.0 0.0 0.00 0.00 0.34 92 1028.5
20260830191022 50 253 0.9 0.0 0.00 0.00 0.34 91 1028.0
20260830190026 50 202 0.0 0.0 0.00 0.00 0.33 90 1027.7
20260830185024 51 290 0.0 0.0 0.00 0.00 0.31 90 1028.5
20260830184039 52 238 0.9 0.0 0.00 0.00 0.27 88 1028.6
20260830183035 53 227 0.9 0.0 0.00 0.00 0.25 87 1028.4
20260830182030 54 84 0.0 0.0 0.00 0.00 0.24 89 1028.1
20260830181031 53 85 0.9 0.0 0.00 0.00 0.24 85 1027.4
20260830180027 53 84 0.9 0.0 0.00 0.00 0.24 88 1027.3
20260830175021 53 96 0.9 0.0 0.00 0.00 0.24 92 1027.4
20260830174037 51 133 0.0 0.0 0.00 0.00 0.24 94 1027.4
20260830173036 50 244 0.0 0.0 0.00 0.00 0.24 93 1027.2
20260830171034 52 277 0.9 0.0 0.00 0.00 0.22 88 1028.3
20260830170038 54 78 0.0 0.0 0.00 0.00 0.07 92 1027.7
20260830165034 54 78 0.9 0.0 0.00 0.00 0.07 93 1026.7
20260830164032 52 78 0.0 0.0 0.00 0.00 0.07 95 1026.8
20260830162036 51 107 0.0 0.0 0.00 0.00 0.07 96 1027.0
20260830161032 50 107 0.0 0.0 0.00 0.00 0.07 96 1027.1
20260830160026 50 106 0.0 0.0 0.00 0.00 0.07 96 1027.7
20260830155038 49 107 0.0 0.0 0.00 0.00 0.07 96 1027.4
20260830153024 49 106 0.0 0.0 0.00 0.00 0.07 96 1027.9
20260830152023 49 106 0.0 0.0 0.00 0.00 0.07 96 1027.9
20260830151035 49 106 0.0 0.0 0.00 0.00 0.07 96 1028.1
20260830145026 48 106 0.0 0.0 0.00 0.00 0.07 97 1027.6
20260830144021 48 106 0.0 0.0 0.00 0.00 0.06 97 1028.3
20260830143022 48 106 0.9 0.0 0.00 0.00 0.06 97 1028.2
20260830142034 48 106 0.0 0.0 0.00 0.00 0.06 96 1028.2
20260830135021 47 106 0.0 0.0 0.00 0.00 0.06 96 1028.2
20260830134020 47 106 0.0 0.0 0.00 0.00 0.06 96 1028.0
20260830133037 47 106 0.0 0.0 0.00 0.00 0.06 96 1027.4
20260830132028 47 106 0.0 0.0 0.00 0.00 0.06 96 1027.4
20260830131021 46 106 0.0 0.0 0.00 0.00 0.06 96 1027.1
20260830130033 46 106 0.0 0.0 0.00 0.00 0.06 96 1026.9
20260830125016 46 106 0.0 0.0 0.00 0.00 0.06 96 1026.5
20260830124034 47 106 0.0 0.0 0.00 0.00 0.06 96 1026.3
20260830123027 47 106 0.0 0.0 0.00 0.00 0.06 96 1026.2
20260830122019 46 106 0.0 0.0 0.00 0.00 0.06 96 1026.3
20260830121034 45 106 0.0 0.0 0.00 0.00 0.06 96 1026.2
20260830120031 45 106 0.0 0.0 0.00 0.00 0.06 96 1025.8
20260830115024 45 106 0.0 0.0 0.00 0.00 0.06 96 1025.6
20260830113031 46 106 0.0 0.0 0.00 0.00 0.06 96 1026.7
20260830112025 47 106 0.0 0.0 0.00 0.00 0.06 96 1026.5
20260830111022 47 106 0.0 0.0 0.00 0.00 0.06 96 1027.0
20260830110035 47 106 0.0 0.0 0.00 0.00 0.06 96 1027.0
20260830105031 47 106 0.0 0.0 0.00 0.00 0.06 96 1026.9
20260830104024 47 106 0.0 0.0 0.00 0.00 0.06 96 1027.0
20260830102031 47 106 0.0 0.0 0.00 0.00 0.06 96 1026.8
20260830101027 47 106 0.0 0.0 0.00 0.00 0.06 96 1026.8
20260830092033 47 106 0.0 0.0 0.00 0.00 0.06 95 1026.8
20260830091033 47 106 0.0 0.0 0.00 0.00 0.06 95 1027.0
20260830085024 47 106 0.0 0.0 0.00 0.00 0.06 95 1027.1
20260830084020 47 106 0.0 0.0 0.00 0.00 0.06 95 1026.8
20260830083031 47 106 0.0 0.0 0.00 0.00 0.06 95 1026.9
20260830081021 48 106 0.0 0.0 0.00 0.00 0.06 95 1026.8
20260830080040 48 106 0.0 0.0 0.00 0.00 0.06 95 1027.4
20260830075032 48 106 0.0 0.0 0.00 0.00 0.06 95 1027.5
20260830074024 48 106 0.0 0.0 0.00 0.00 0.06 95 1027.8
20260830073022 48 106 0.0 0.0 0.00 0.00 0.05 95 1027.8
20260830072039 49 106 0.0 0.0 0.00 0.00 0.04 95 1028.1
20260830071031 49 106 0.0 0.0 0.00 0.00 0.02 95 1028.0
20260830070025 49 106 0.0 0.0 0.00 0.00 0.01 95 1028.0
20260830065021 48 106 0.0 0.0 0.00 0.00 0.01 95 1028.1
20260830063035 48 106 0.0 0.0 0.00 0.00 0.00 95 1028.5
20260830062027 48 106 0.0 0.0 0.00 0.00 0.00 95 1028.1
20260830061021 48 106 0.0 0.0 0.00 0.00 0.00 94 1027.9
20260830060034 49 106 0.0 0.0 0.00 0.00 0.00 95 1027.9
20260830055032 49 106 0.0 0.0 0.00 0.00 0.22 95 1028.1
20260830053038 49 106 0.0 0.0 0.00 0.00 0.22 94 1028.6
20260830052031 49 106 0.0 0.0 0.00 0.00 0.22 94 1028.1
20260830051024 49 106 0.0 0.0 0.00 0.00 0.22 94 1028.5
20260830050040 49 106 0.0 0.0 0.00 0.00 0.22 94 1029.0
20260830045034 49 106 0.0 0.0 0.00 0.00 0.22 94 1029.4
20260830043043 49 106 0.0 0.0 0.00 0.00 0.21 94 1029.3
20260830042036 49 106 0.0 0.0 0.00 0.00 0.21 94 1029.6
20260830041033 49 106 0.0 0.0 0.00 0.00 0.21 94 1029.4
20260830035041 49 106 0.0 0.0 0.00 0.00 0.20 94 1029.8
20260830034034 49 106 0.0 0.0 0.00 0.00 0.20 94 1029.5
20260830033029 49 106 0.9 0.0 0.00 0.00 0.20 93 1029.3
20260830032029 49 107 0.0 0.0 0.00 0.00 0.20 93 1029.3
20260830031024 49 109 0.0 0.0 0.00 0.00 0.20 93 1029.3
20260830030042 50 115 0.0 0.0 0.00 0.00 0.20 92 1029.3
20260830025034 50 123 0.0 0.0 0.00 0.00 0.20 91 1029.3
20260830024024 50 123 0.0 0.0 0.00 0.00 0.20 90 1029.2
20260830023040 50 304 0.0 0.0 0.00 0.00 0.19 89 1029.2
20260830022034 50 285 0.9 0.0 0.00 0.00 0.16 88 1029.6
20260830021027 51 316 0.0 0.0 0.00 0.00 0.13 88 1029.7
20260830020024 51 316 0.9 0.0 0.00 0.00 0.13 88 1029.1
20260830015036 51 121 0.0 0.0 0.00 0.00 0.12 87 1029.0
20260830014033 51 121 0.9 0.0 0.00 0.00 0.11 85 1028.5
20260830012023 51 86 0.0 0.0 0.00 0.00 0.09 84 1028.4